Regional Weather Roundup
Issued by NWS

Home | Current Version | Previous Version | Graphics & Text | Print | Product List | Glossary On
Versions: 1 2 3 4 5 6 7 8 9 10 11 12 13 14 15 16 17 18 19 20 21 22 23 24 25 26 27 28 29 30 31 32 33 34 35 36 37 38 39 40 41 42 43 44 45 46 47 48 49 50
000
ASUS43 KLMK 250902
RWRKY
KENTUCKY REGIONAL WEATHER ROUNDUP
NATIONAL WEATHER SERVICE LOUISVILLE KY
500 AM EDT MON JUL 25 2016

NOTE "FAIR" INDICATES FEW OR NO CLOUDS BELOW 12,000 FEET
WITH NO SIGNIFICANT WEATHER AND/OR OBSTRUCTIONS TO VISIBILITY.

KYZ001>023-026-027-061>063-070>075-251000-
WESTERN AND SOUTH CENTRAL KENTUCKY

CITY           SKY/WX    TMP DP  RH WIND       PRES   REMARKS
PADUCAH        CLEAR     77  75  93 S5        29.98R FOG
HENDERSON      MOCLDY    79  73  83 CALM      29.98S
OWENSBORO      MOCLDY    81  78  90 CALM      30.00R
HOPKINSVILLE   CLEAR     78  74  88 CALM      30.00F
BOWLING GREEN  CLOUDY    80  76  87 S6        30.01F
GLASGOW        NOT AVBL
$$

KYZ024-025-028>034-038-045-046-053-251000-
NORTH CENTRAL KENTUCKY

CITY           SKY/WX    TMP DP  RH WIND       PRES   REMARKS
LOUISVILLE/SDF MOCLDY    82  75  79 CALM      29.99F
LOUISVILLE/LOU PTCLDY    81  75  82 CALM      30.00F
FORT KNOX      PTCLDY    75  74  97 SE2       30.00S
$$

KYZ035>037-039>044-047>052-055>060-089>105-251000-
NORTHEAST KENTUCKY

CITY           SKY/WX    TMP DP  RH WIND       PRES   REMARKS
LEXINGTON      CLEAR     76  73  91 S3        30.03F
COVINGTON      MOCLDY    76  75  97 SW3       30.01S
FRANKFORT      CLEAR     77  73  87 SW3       30.01F
$$

KYZ054-064>069-076>088-106>120-251000-
SOUTHEAST KENTUCKY

CITY           SKY/WX    TMP DP  RH WIND       PRES   REMARKS
JACKSON        CLOUDY    75  74  96 CALM      30.06S FOG
LONDON         CLEAR     74  71  91 CALM      30.06F
SOMERSET       CLEAR     72  72 100 CALM      30.06S
MIDDLESBORO    PTCLDY    73  73  99 CALM      30.08S
MONTICELLO     NOT AVBL
$$




USA.gov is the U.S. government's official web portal to all federal, state and local government web resources and services.